CXO

Last updated on Sun Sep 20 2026 00:03:31 GMT+0000 (Coordinated Universal Time)

1 25867U 99040B 26264.57838639 .00000964 00000+0 00000+0 0 9996 2 25867 57.4713 114.1840 7687429 309.3021 0.4302 0.37796833 17684
UTC large
Height (km)
Speed (km/s)
/
Latitude / Longitude
Inclination (degrees)
Orbital Period (minutes)
Azimuth
Elevation
Range (km)
Doppler Factor

Next 0 passes for location: London (51.5072 / 0.1276)

No passes found over London.
CXO